Weather History for KNLC - November, 2012

Change the Weather History Date:

Monday, November 19, 2012

  Actual Average (KHJO) Record (KHJO)
Temperature  
Mean Temperature 52 °F 50 °F  
Max Temperature 66 °F 63 °F 75 °F (2008)
Min Temperature 39 °F 38 °F 30 °F (2000)
Degree Days  
Heating Degree Days 12    
Month to date heating degree days  
Since 1 July heating degree days  
Cooling Degree Days 0    
Month to date cooling degree days  
Year to date cooling degree days  
Growing Degree Days 2 (Base 50)    
Moisture  
Dew Point 43 °F    
Average Humidity 74    
Maximum Humidity 96    
Minimum Humidity 44    
Precipitation  
Precipitation 0.01 in 0.04 in 0.08 in (1999)
Month to date precipitation 0.75  
Year to date precipitation 8.22  
Since 1 July precipitation 1.46  
Snow  
Snow 0.00 in - - ()
Month to date snowfall  
Since 1 July snowfall  
Since 1 September snowfall  
Snow Depth -    
Sea Level Pressure  
Sea Level Pressure 30.23 in    
Wind  
Wind Speed 4 mph (SW)    
Max Wind Speed 9 mph    
Max Gust Speed -    
Visibility 10 miles    
Events      
T = Trace of Precipitation, MM = Missing Value Source: NWS Daily Summary

Daily Weather History Graph

Daily Weather History Graph

Search for Another Location

Airport or City:

Trip Planner

Search our weather history database for the weather conditions in past years. The results will help you decide how hot, cold, wet, or windy it might be!

Date:

Astronomy

Nov. 19, 2012 Rise Set
Actual Time 6:41 AM PST 4:48 PM PST
Civil Twilight 6:13 AM PST 5:16 PM PST
Nautical Twilight 5:42 AM PST 5:47 PM PST
Astronomical Twilight 5:11 AM PST 6:18 PM PST
Moon 11:51 AM PST (11/19) 11:16 PM PST (11/19)
Length of Visible Light 11h 02m
Length of Day
10h 07m
Waxing Crescent, 42% of the Moon is Illuminated
Nov 19
Waxing Crescent
Nov 20
First Quarter
Nov 28
Full
Dec 6
Last Quarter
Dec 13
New

Hourly Weather History & Observations

Time (PST) Temp. Windchill Dew Point Humidity Pressure Visibility Wind Dir Wind Speed Gust Speed Precip Events Conditions
12:56 AM 46.9 °F - 45.0 °F 93% 30.18 in - West 8.1 mph - N/A   Clear
1:56 AM 44.1 °F 40.8 °F 42.1 °F 93% 30.19 in - West 5.8 mph - N/A   Clear
2:56 AM 43.0 °F 37.7 °F 41.0 °F 93% 30.19 in - West 9.2 mph - N/A   Clear
3:56 AM 41.0 °F 36.4 °F 39.9 °F 96% 30.20 in - WSW 6.9 mph - N/A   Clear
4:56 AM 39.9 °F - 37.9 °F 93% 30.22 in - Calm Calm - N/A   Clear
5:56 AM 39.9 °F - 37.9 °F 93% 30.24 in - Calm Calm - N/A   Clear
6:56 AM 39.0 °F - 37.9 °F 96% 30.25 in - Calm Calm - 0.01 in   Clear
7:20 AM 41.0 °F 37.1 °F 39.2 °F 93% 30.25 in 10.0 mi SW 5.8 mph - N/A   Partly Cloudy
7:56 AM 46.0 °F 43.9 °F 43.0 °F 89% 30.27 in 10.0 mi WSW 4.6 mph - N/A   Scattered Clouds
8:56 AM 54.0 °F - 46.0 °F 75% 30.28 in 10.0 mi Calm Calm - N/A   Scattered Clouds
9:56 AM 57.0 °F - 46.0 °F 67% 30.29 in 10.0 mi Calm Calm - N/A   Scattered Clouds
10:56 AM 62.1 °F - 46.9 °F 58% 30.28 in 10.0 mi Calm Calm - N/A   Scattered Clouds
11:56 AM 64.0 °F - 46.9 °F 54% 30.24 in 10.0 mi Calm Calm - N/A   Mostly Cloudy
12:56 PM 64.9 °F - 46.0 °F 50% 30.23 in 10.0 mi East 4.6 mph - N/A   Mostly Cloudy
1:56 PM 66.0 °F - 45.0 °F 47% 30.22 in 10.0 mi SSE 3.5 mph - N/A   Mostly Cloudy
2:56 PM 66.9 °F - 44.1 °F 44% 30.21 in 10.0 mi East 3.5 mph - N/A   Mostly Cloudy
3:56 PM 66.9 °F - 44.1 °F 44% 30.21 in 10.0 mi East 4.6 mph - N/A   Mostly Cloudy
4:56 PM 61.0 °F - 45.0 °F 56% 30.21 in 10.0 mi NE 5.8 mph - N/A   Mostly Cloudy
5:56 PM 55.0 °F - 43.0 °F 64% 30.22 in 10.0 mi NE 4.6 mph - N/A   Scattered Clouds
6:56 PM 55.9 °F - 46.0 °F 69% 30.22 in 10.0 mi Calm Calm - N/A   Partly Cloudy
7:56 PM 54.0 °F - 45.0 °F 72% 30.22 in 10.0 mi Calm Calm - N/A   Partly Cloudy
8:56 PM 51.1 °F - 42.1 °F 71% 30.22 in 10.0 mi SW 4.6 mph - N/A   Partly Cloudy
9:56 PM 46.9 °F - 41.0 °F 80% 30.22 in 10.0 mi Calm Calm - N/A   Partly Cloudy
10:56 PM 46.9 °F - 42.1 °F 83% 30.21 in 10.0 mi Calm Calm - N/A   Partly Cloudy
11:56 PM 45.0 °F 42.6 °F 39.0 °F 80% 30.20 in 10.0 mi WSW 4.6 mph - N/A   Clear